Lago Vista, TX

5:56 PM CDT on March 24, 2017 (GMT -0500)
Lago Vista

Weather History for KRYW - March, 2013

Change the Weather History Date:

Friday, March 8, 2013

  Actual Average (KGTU) Record (KGTU)
Temperature  
Mean Temperature 58 °F -  
Max Temperature 62 °F 63 °F 84 °F (2006)
Min Temperature 55 °F 43 °F 28 °F (2008)
Degree Days  
Heating Degree Days 6    
Growing Degree Days 8 (Base 50)    
Moisture  
Dew Point 56 °F    
Average Humidity 88    
Maximum Humidity 100    
Minimum Humidity 72    
Precipitation  
Precipitation 0.01 in - - ()
Sea Level Pressure  
Sea Level Pressure 30.09 in    
Wind  
Wind Speed 9 mph (SE)    
Max Wind Speed 15 mph    
Max Gust Speed 24 mph    
Visibility 7 miles    
Events Rain    
Averages and records for this station are not official NWS values.
T = Trace of Precipitation, MM = Missing Value Source: NWS Daily Summary

Daily Weather History Graph

Daily Weather History Graph

Search for Another Location

Airport or City:

Trip Planner

Search our weather history database for the weather conditions in past years. The results will help you decide how hot, cold, wet, or windy it might be!

Date:

Astronomy

Mar. 08, 2013 Rise Set
Actual Time 6:49 AM CST 6:35 PM CST
Civil Twilight 6:25 AM CST 6:59 PM CST
Nautical Twilight 5:57 AM CST 7:27 PM CST
Astronomical Twilight 5:30 AM CST 7:55 PM CST
Moon 4:23 AM CST (3/8) 3:42 PM CST (3/8)
Length of Visible Light 12h 33m
Length of Day
11h 45m
Waning Crescent, 11% of the Moon is Illuminated
Mar 8
Waning Crescent
Mar 11
New
Mar 19
First Quarter
Mar 27
Full
Apr 2
Last Quarter

Hourly Weather History & Observations

Time (CST) Temp. Dew Point Humidity Pressure Visibility Wind Dir Wind Speed Gust Speed Precip Events Conditions
12:15 AM 59.0 °F 50.0 °F 72% 30.13 in 10.0 mi SSE 15.0 mph 21.9 mph N/A   Overcast
12:35 AM 59.0 °F 50.0 °F 72% 30.13 in 10.0 mi SSE 12.7 mph 18.4 mph N/A   Overcast
12:55 AM 59.0 °F 50.0 °F 72% 30.13 in 10.0 mi SSE 8.1 mph 18.4 mph N/A   Overcast
1:15 AM 59.0 °F 50.0 °F 72% 30.12 in 10.0 mi SE 11.5 mph 18.4 mph N/A   Overcast
1:35 AM 59.0 °F 50.0 °F 72% 30.12 in 10.0 mi SSE 10.4 mph 18.4 mph N/A   Overcast
1:55 AM 59.0 °F 51.8 °F 77% 30.12 in 10.0 mi SSE 11.5 mph 17.3 mph N/A   Overcast
2:15 AM 59.0 °F 51.8 °F 77% 30.11 in 10.0 mi SE 11.5 mph 19.6 mph N/A   Overcast
2:35 AM 59.0 °F 51.8 °F 77% 30.11 in 10.0 mi SSE 10.4 mph 18.4 mph N/A   Overcast
2:55 AM 59.0 °F 51.8 °F 77% 30.11 in 10.0 mi SSE 12.7 mph 18.4 mph N/A   Overcast
3:15 AM 59.0 °F 51.8 °F 77% 30.10 in 10.0 mi SSE 10.4 mph 16.1 mph N/A   Overcast
3:35 AM 57.2 °F 51.8 °F 82% 30.09 in 10.0 mi SE 9.2 mph 17.3 mph N/A   Overcast
3:55 AM 57.2 °F 51.8 °F 82% 30.09 in 10.0 mi SSE 8.1 mph - N/A   Overcast
4:15 AM 57.2 °F 51.8 °F 82% 30.09 in 10.0 mi SSE 6.9 mph - N/A   Overcast
4:35 AM 57.2 °F 51.8 °F 82% 30.09 in 10.0 mi SSE 9.2 mph - N/A   Overcast
4:55 AM 57.2 °F 51.8 °F 82% 30.09 in 10.0 mi SE 10.4 mph - N/A   Overcast
5:15 AM 57.2 °F 51.8 °F 82% 30.10 in 10.0 mi SSE 6.9 mph - N/A   Overcast
5:35 AM 57.2 °F 51.8 °F 82% 30.10 in 10.0 mi SE 5.8 mph - N/A   Overcast
5:55 AM 55.4 °F 51.8 °F 88% 30.10 in 10.0 mi SE 6.9 mph - N/A   Overcast
6:15 AM 55.4 °F 51.8 °F 88% 30.11 in 10.0 mi SE 5.8 mph - N/A   Overcast
6:35 AM 55.4 °F 51.8 °F 88% 30.10 in 10.0 mi SE 6.9 mph - N/A   Overcast
6:55 AM 55.4 °F 51.8 °F 88% 30.10 in 10.0 mi SE 9.2 mph - N/A   Overcast
7:15 AM 55.4 °F 53.6 °F 94% 30.10 in 10.0 mi SE 10.4 mph - N/A   Overcast
7:35 AM 55.4 °F 53.6 °F 94% 30.11 in 7.0 mi SE 6.9 mph - N/A   Light Drizzle
7:55 AM 55.4 °F 53.6 °F 94% 30.12 in 3.0 mi ESE 8.1 mph - N/A   Light Drizzle
8:15 AM 55.4 °F 53.6 °F 94% 30.12 in 5.0 mi ESE 9.2 mph - N/A   Overcast
8:35 AM 55.4 °F 53.6 °F 94% 30.13 in 7.0 mi ESE 8.1 mph - N/A   Overcast
8:55 AM 57.2 °F 53.6 °F 88% 30.14 in 5.0 mi ESE 6.9 mph - N/A   Overcast
9:15 AM 57.2 °F 53.6 °F 88% 30.14 in 2.5 mi SE 4.6 mph - N/A   Overcast
9:35 AM 57.2 °F 55.4 °F 94% 30.14 in 1.5 mi ESE 5.8 mph - N/A   Drizzle
10:15 AM 57.2 °F 55.4 °F 94% 30.16 in 1.0 mi SE 3.5 mph - N/A   Drizzle
10:35 AM 59.0 °F 55.4 °F 88% 30.15 in 1.0 mi East 3.5 mph - N/A   Drizzle
11:15 AM 59.0 °F 55.4 °F 88% 30.13 in 0.5 mi East 8.1 mph - N/A   Drizzle
11:35 AM 59.0 °F 55.4 °F 88% 30.13 in 0.5 mi ESE 6.9 mph - N/A   Drizzle
11:55 AM 59.0 °F 55.4 °F 88% 30.15 in 0.5 mi ESE 6.9 mph - N/A   Light Drizzle
12:15 PM 59.0 °F 57.2 °F 94% 30.14 in 0.2 mi ESE 6.9 mph - N/A Rain Light Rain
12:35 PM 59.0 °F 57.2 °F 94% 30.12 in 0.5 mi ESE 11.5 mph - N/A Rain Light Rain
12:55 PM 59.0 °F 59.0 °F 100% 30.10 in 0.5 mi ESE 13.8 mph 20.7 mph N/A Rain Light Rain
1:15 PM 59.0 °F 59.0 °F 100% 30.09 in 2.0 mi ESE 9.2 mph 16.1 mph N/A   Light Drizzle
1:35 PM 59.0 °F 59.0 °F 100% 30.08 in 2.5 mi ESE 8.1 mph - N/A Rain Rain
1:55 PM 60.8 °F 59.0 °F 94% 30.09 in 3.0 mi ESE 3.5 mph - 0.01 in Rain Rain
2:15 PM 60.8 °F 59.0 °F 94% 30.10 in 2.5 mi SE 3.5 mph - N/A Rain Rain
2:35 PM 60.8 °F 59.0 °F 94% 30.09 in 2.0 mi SE 3.5 mph - N/A Rain Light Rain
2:55 PM 60.8 °F 59.0 °F 94% 30.07 in 2.5 mi ESE 6.9 mph - N/A Rain Rain
3:15 PM 60.8 °F 59.0 °F 94% 30.06 in 2.5 mi ESE 4.6 mph - N/A Rain Rain
3:35 PM 60.8 °F 59.0 °F 94% 30.06 in 1.5 mi East 5.8 mph - N/A Rain Rain
3:55 PM 60.8 °F 59.0 °F 94% 30.05 in 1.5 mi ESE 5.8 mph - N/A   Light Drizzle
4:15 PM 60.8 °F 60.8 °F 100% 30.04 in 1.8 mi ESE 10.4 mph - N/A   Overcast
4:35 PM 62.6 °F 60.8 °F 94% 30.04 in 2.5 mi ESE 10.4 mph 17.3 mph N/A   Overcast
4:55 PM 62.6 °F 60.8 °F 94% 30.05 in 2.0 mi SE 5.8 mph - N/A   Overcast
5:15 PM 62.6 °F 60.8 °F 94% 30.03 in 2.5 mi SE 6.9 mph - N/A   Overcast
5:35 PM 62.6 °F 60.8 °F 94% 30.03 in 5.0 mi SE 5.8 mph - N/A   Overcast
5:55 PM 62.6 °F 60.8 °F 94% 30.03 in 7.0 mi ESE 8.1 mph 16.1 mph N/A   Overcast
6:15 PM 62.6 °F 60.8 °F 94% 30.03 in 10.0 mi SE 5.8 mph - N/A   Overcast
6:35 PM 62.6 °F 60.8 °F 94% 30.04 in 10.0 mi SE 6.9 mph - N/A   Overcast
6:55 PM 62.6 °F 60.8 °F 94% 30.04 in 10.0 mi ESE 4.6 mph - N/A   Overcast
7:15 PM 62.6 °F 60.8 °F 94% 30.05 in 10.0 mi SE 6.9 mph - N/A   Overcast
7:35 PM 62.6 °F 60.8 °F 94% 30.04 in 10.0 mi SE 6.9 mph - N/A   Overcast
7:55 PM 62.6 °F 59.0 °F 88% 30.04 in 10.0 mi SE 8.1 mph - N/A   Overcast
8:15 PM 62.6 °F 59.0 °F 88% 30.05 in 10.0 mi SSE 8.1 mph - N/A   Overcast
8:35 PM 62.6 °F 59.0 °F 88% 30.06 in 10.0 mi SSE 9.2 mph 18.4 mph N/A   Overcast
8:55 PM 62.6 °F 59.0 °F 88% 30.07 in 10.0 mi SSE 10.4 mph 20.7 mph N/A   Overcast
9:15 PM 62.6 °F 57.2 °F 82% 30.06 in 10.0 mi SE 12.7 mph 17.3 mph N/A   Overcast
9:35 PM 62.6 °F 57.2 °F 82% 30.06 in 10.0 mi SSE 13.8 mph 24.2 mph N/A   Overcast
9:55 PM 62.6 °F 57.2 °F 82% 30.05 in 10.0 mi SE 13.8 mph 19.6 mph N/A   Overcast
10:15 PM 60.8 °F 57.2 °F 88% 30.05 in 10.0 mi SSE 13.8 mph 20.7 mph N/A   Overcast
10:35 PM 60.8 °F 57.2 °F 88% 30.04 in 10.0 mi SSE 9.2 mph 19.6 mph N/A   Overcast
10:55 PM 60.8 °F 57.2 °F 88% 30.04 in 10.0 mi SSE 10.4 mph 18.4 mph N/A   Overcast
11:15 PM 60.8 °F 57.2 °F 88% 30.04 in 10.0 mi SSE 15.0 mph 21.9 mph N/A   Overcast
11:35 PM 60.8 °F 57.2 °F 88% 30.03 in 10.0 mi SSE 11.5 mph 20.7 mph N/A   Overcast
11:55 PM 60.8 °F 57.2 °F 88% 30.02 in 10.0 mi SSE 11.5 mph 20.7 mph N/A   Overcast